Location: Newark
(34.3481°N, 134.0494°E)
Time: 13:10:25
(UTC+00:00)

Vanguard 3 - Pass Details

Date: 20 January 2020
Orbit: 508 x 3263 km, 33.3° (Epoch: 24 February)

Event Time Altitude Azimuth Distance (km) Brightness Sun altitude
Rises 11:36:02 0° 260° (W) 7,166 12.8 -40.0°
Reaches altitude 10° 11:41:08 10° 260° (W) 5,992 12.2 -41.1°
Enters shadow 11:58:10 81° 234° (SW) 2,327 9.2 -44.6°
